Aeroporto :
LOGIN :

Iscrizione | Disclaimer

   EN    FR    IT 

 










Sommario :    VFR   VFR Marginale   IFR   IFR Intensivo   IFR Molto Intensivo
Visibilità : 
Base nubi : 
>= 8 km
>= 3000ft
5 / 8 km
1000 / 3000 ft
1500m / 5 km
500 / 1000 ft
800 / 1500m
200 / 500 ft
< 800m
< 200 ft
Simboli :   Temporali  Nebbia  Neve Forte  Precipitazioni Forti  Vento > 20 kt
SIGMETs :   Varie  Temporali  Ghiacco  Turbolenza  Onda orograficha  Ceneri Vulcaniche






- Altitudine del aeroporto : 1020 ft
- Codice IATA : ILZ


LZZI - Žilina

ULTIMO METAR :
  • 180930Z 07008KT 030V100 CAVOK 16/01 Q1027

METARs OBSOLETI :
  • 180900Z 06009KT CAVOK 16/03 Q1027
  • 180830Z 06009KT CAVOK 15/03 Q1027
  • 180800Z 07009KT 040V110 CAVOK 14/03 Q1027
  • 180730Z 09006KT 060V120 CAVOK 13/04 Q1027
  • 180700Z 10006KT CAVOK 12/05 Q1027

TAF TAF LZZI
Valido dal 18 a 09 ore il 18 a 18 ore UTC


180800Z 1809/1818 09007KT CAVOK



MetMap, La meteo Aeronautica in un colpo d'occhio ! - Copyright ORBIFLY Dicembre 2007 - Disclaimer

ORBIFLY MET'MAP TEAM :

Programmazione e sviluppo : Alexandra Zaïnal
Concezione : Baudouin d'Aumeries
Aiuto per la programmazione : Marc-Olivier Méhu
Supporto tecnico e logistico : Manuel Goepfert
Aiuto per la traduzione : Arnaldo La Scala

Contatto : metmap@orbifly.com




FONTI E CREDITI :

   NOAA